Regional Weather Roundup
Issued by NWS San Diego, CA

Home | Current Version | Previous Version | Text Only | Print | Product List | Glossary On
Versions: 1 2 3 4 5 6 7 8 9 10 11 12 13 14 15 16 17 18 19 20 21 22 23 24 25 26 27 28 29 30 31 32 33 34 35 36 37 38 39 40 41 42 43 44 45 46 47 48 49 50
580
ASUS46 KSGX 241211
RWRSGX

SAN DIEGO HOURLY WEATHER ROUNDUP
NATIONAL WEATHER SERVICE SAN DIEGO CA
500 AM PDT SUN SEP 24 2017

NOTE: "FAIR" INDICATES FEW OR NO CLOUDS BELOW 12,000 FEET WITH NO
SIGNIFICANT WEATHER AND/OR OBSTRUCTIONS TO VISIBILITY.

CAZ042-043-060-061-PZZ750-775-241300-

GREATER SAN DIEGO AREA

CITY           SKY/WX    TMP DP  RH WIND       PRES   REMARKS
SAN DIEGO AP   CLEAR     61  53  75 CALM      29.85S
NATIONAL CITY    N/A     59  54  84 CALM      29.86S
CHULA VISTA      N/A     55  52  91 CALM      29.76S
IMPERIAL BEACH CLEAR     54  50  86 E6        29.84F
BROWN FIELD    CLEAR     54  51  90 SE5       29.84S
MIRAMAR MCAS   CLEAR     56  51  84 E6        29.84S
MONTGOMERY FLD CLEAR     58  51  78 CALM      29.84S
GILLESPIE FLD  FAIR      55  50  82 CALM      29.85S

$$

NORTH SAN DIEGO COUNTY

CITY           SKY/WX    TMP DP  RH WIND       PRES   REMARKS
CAMP PENDLETON CLEAR     46  44  93 CALM      29.84S
OCEANSIDE AP   CLEAR     50  48  93 CALM      29.83S
OCEANSIDE HBR    N/A     55  51  86 NE2       29.86S
VISTA            N/A     51  47  84 CALM      29.81S
CARLSBAD       CLEAR     58  51  78 SE3       29.83S
DEL MAR          N/A     58  54  87 CALM      29.85S
LA JOLLA SCRIP   N/A     60  55  83 NE3       29.83S
FALLBROOK        N/A     56  55  95 E2        29.85S
ESCONDIDO        N/A     55  50  82 CALM      29.85F
SAN MARCOS       N/A     57  51  81 CALM      29.86S
POWAY            N/A     51  47  85 CALM      29.86R

$$

EAST SAN DIEGO COUNTY

CITY           SKY/WX    TMP DP  RH WIND       PRES   REMARKS
RAMONA         CLEAR     46  44  93 CALM      29.85F
SANTEE LAKES     N/A     52  49  89 CALM      29.83S
LA MESA          N/A     57  52  84 CALM      29.77S
JAMUL            N/A     51  48  90 CALM      29.84S
DESCANSO N       N/A     49  32  51 CALM      29.83S
CAMPO            N/A     39  35  86 VRB5      29.85S

$$

ORANGE COUNTY AND THE LOS ANGELES BASIN

CITY           SKY/WX    TMP DP  RH WIND       PRES   REMARKS
JOHN WAYNE AP  CLEAR     60  53  77 CALM      29.83F
LAGUNA BEACH     N/A     55  50  83 CALM      29.79S
LAKE FOREST FR   N/A     55  44  64 CALM      29.73S
HUNTINGTON BCH   N/A     54  53  97 CALM      29.84F
LOS ALAMITOS   FAIR      56  52  85 CALM      29.83F
FULLERTON      CLEAR     57  53  86 CALM      29.83S
LONG BEACH     CLEAR     60  53  77 CALM      29.84S
L.A. AP        CLEAR     60  54  80 E3        29.84S
L.A. DOWNTOWN  CLEAR     61  51  70 CALM      29.83F

$$

THE INLAND EMPIRE

CITY           SKY/WX    TMP DP  RH WIND       PRES   REMARKS
CORONA         CLEAR     47  44  90 CALM      29.86S
CHINO          CLEAR     54  50  86 NE5       29.87S
ONTARIO        CLEAR     56  49  77 CALM      29.85F
SAN BERNARDINO FAIR      51  41  70 E3        29.87S
RIVERSIDE AP   CLEAR     54  50  86 E3        29.86S
MORENO VALLEY    N/A     53  50  87 CALM      27.98
MARCH ARB      CLEAR     45  43  92 CALM      29.86F
HORSETHIEF CYN   N/A     54  41  62 W2        29.85F
PERRIS           N/A     52  49  89 CALM        N/A
HEMET EAST       N/A     53  36  52 CALM      29.90F
FRENCH VALLEY  FAIR      52  46  82 N3        29.87S
TEMECULA         N/A     53  50  89 CALM      29.93S

$$

SAN BERNARDINO AND RIVERSIDE COUNTY MOUNTAINS

CITY           SKY/WX    TMP DP  RH WIND       PRES   REMARKS
BIG BEAR AP    CLEAR     28  14  54 CALM      30.03S
ANGELUS OAKS     N/A     42  23  48 CALM      29.84F
PINE COVE        N/A     45  22  40 CALM      29.90F

$$

SOUTHERN DESERT INCLUDING THE COACHELLA VALLEY

CITY           SKY/WX    TMP DP  RH WIND       PRES   REMARKS
PALM SPRINGS   CLEAR     62  40  44 NW8       29.85S
THOUSAND PALMS   N/A     63  29  28 NW5       29.80S
PALM DESERT      N/A     63  47  56 CALM      30.32S
THERMAL        CLEAR     64  44  48 N7        29.79S
BLYTHE         CLEAR     69  31  24 N18       29.83R
IMPERIAL AP    CLEAR     64  43  46 NW5       29.79R
EL CENTRO NAS  CLEAR     61  40  45 NW7       29.80S
YUMA AZ        CLEAR     71  27  19 N12       29.78R

$$

UPPER DESERT

CITY           SKY/WX    TMP DP  RH WIND       PRES   REMARKS
VICTORVILLE AP CLEAR     45  32  61 CALM      29.95R
HESPERIA         N/A     46  35  64 W3        30.04R
PALMDALE       CLEAR     49  31  49 CALM      29.95R
LANCASTER      CLEAR     45  29  53 W3        29.95R
EDWARDS AFB    CLEAR     46  27  47 N6        29.93R
DAGGETT        CLEAR     52  34  50 W8        29.93S
29 PALMS N     CLEAR     57  27  31 W10       29.98R
NEEDLES        CLEAR     65  37  35 N14       29.89S

$$

REGIONAL REPORTS

CITY           SKY/WX    TMP DP  RH WIND       PRES   REMARKS
SANTA BARBARA  CLEAR     52  45  77 CALM      29.84R
SANDBERG       CLEAR     51  25  36 N9        29.98S
LAS VEGAS NV   CLEAR     58  32  37 N7        29.95R
PHOENIX AZ     CLEAR     64  32  30 SW3       29.77R
TIJUANA        CLEAR     57  52  82 CALM      29.86F

$$

OFFSHORE ISLANDS

CITY           SKY/WX    TMP DP  RH WIND       PRES   REMARKS
CATALINA ARPT  CLEAR     63  40  42 N6        29.87S
SAN NICOLAS IS FOG      N/A N/A N/A CALM      29.85S VSB 3/4

$$

MARINE AND OFFSHORE BUOY REPORTS

STATION/POSITION SKY/WX   TEMP    WIND        PRES    VSBY  SWELL
                          AIR SEA DIR/SP/G                  HT/PER/DIR
                          (F)     (DEG/KT/KT) (MB)    (MI)  (FT/S/D)
TANNER BANKS               64 65  320/ 14/ 16 1010.4F         5/330/10
S CLEMENTE BASIN           66 70  300/  8/ 10 1010.3F         3/290/11
SAN NICOLAS IS.               62                N/A           3/300/11
SO. S. ROSA ISLA           60 61  310/ 12/ 12 1010.0S         3/300/ 9
W. S. BARBARA CH           60 61  320/  8/ 10 1010.2R         5/290/ 9
M. S. BARBARA CH           62 64  250/  4/  4 1011.1R         3/260/ 8
S. MONICA BASIN               68  140/  4/  4 1009.9F         2/260/ 7
S PEDRO CHANNEL               64                N/A           2/240/13
CMP PENDLETON NS              68                N/A           2/220/15
OCEANSIDE OFFSHR              67                N/A           2/220/13
TORREY PINES OTR              68                N/A           2/230/11
SAN DIEGO BAY                 72              1010.8S
POINT LOMA SOUTH              71                N/A           2/240/11

$$





USA.gov is the U.S. government's official web portal to all federal, state and local government web resources and services.